When you browse on this site, cookies collect data to enhance your experience and personalize the content and advertising you see.
Visit our Privacy Policy to learn more. By continuing to use the site, you agree to this use of cookies and data.
  • In Romania
  • List of Countries
  • For 7 days
  • Water Temperature
  • Weather Map
  • Weather Widgets
  • user-avatar
    Login

    Hourly Weather Saint-Nazaire

    Today, 19 September, Thursday

    Time Temperature Precipitation Wind Pressure Humidity
    00:00 +13°C° 0 mm 8 mps 768 mmHg 59%
    01:00 +12°C° 0 mm 8 mps 768 mmHg 61%
    02:00 +12°C° 0 mm 8 mps 767 mmHg 64%
    03:00 +11°C° 0 mm 8 mps 767 mmHg 67%
    04:00 +11°C° 0 mm 8 mps 767 mmHg 68%
    05:00 +11°C° 0 mm 8 mps 767 mmHg 70%
    06:00 +10°C° 0 mm 8 mps 767 mmHg 71%
    07:00 +12°C° 0 mm 8 mps 768 mmHg 63%
    08:00 +15°C° 0 mm 8 mps 768 mmHg 55%
    09:00 +17°C° 0 mm 9 mps 768 mmHg 47%
    10:00 +18°C° 0 mm 9 mps 768 mmHg 43%
    11:00 +21°C° 0 mm 9 mps 768 mmHg 39%
    12:00 +22°C° 0 mm 9 mps 767 mmHg 35%
    13:00 +23°C° 0 mm 9 mps 767 mmHg 33%
    14:00 +23°C° 0 mm 9 mps 766 mmHg 32%
    15:00 +24°C° 0 mm 9 mps 766 mmHg 31%
    16:00 +23°C° 0 mm 8 mps 766 mmHg 33%
    17:00 +21°C° 0 mm 7 mps 765 mmHg 35%
    18:00 +20°C° 0 mm 7 mps 765 mmHg 37%
    19:00 +18°C° 0 mm 7 mps 766 mmHg 39%
    20:00 +17°C° 0 mm 8 mps 766 mmHg 41%
    21:00 +16°C° 0 mm 8 mps 766 mmHg 43%
    22:00 +15°C° 0 mm 8 mps 766 mmHg 45%
    23:00 +15°C° 0 mm 8 mps 766 mmHg 46%

    Tomorrow, 20 September, Friday

    Time Temperature Precipitation Wind Pressure Humidity
    00:00 +13°C° 0 mm 9 mps 765 mmHg 48%
    01:00 +13°C° 0 mm 8 mps 765 mmHg 49%
    02:00 +12°C° 0 mm 8 mps 765 mmHg 50%
    03:00 +12°C° 0 mm 8 mps 764 mmHg 50%
    04:00 +11°C° 0 mm 8 mps 764 mmHg 52%
    05:00 +11°C° 0 mm 8 mps 763 mmHg 53%
    06:00 +10°C° 0 mm 8 mps 763 mmHg 54%
    07:00 +12°C° 0 mm 8 mps 763 mmHg 49%
    08:00 +15°C° 0 mm 8 mps 763 mmHg 44%
    09:00 +16°C° 0 mm 9 mps 763 mmHg 40%
    10:00 +20°C° 0 mm 8 mps 762 mmHg 37%
    11:00 +22°C° 0 mm 7 mps 761 mmHg 34%
    12:00 +24°C° 0 mm 6 mps 761 mmHg 30%
    13:00 +26°C° 0 mm 6 mps 760 mmHg 31%
    14:00 +27°C° 0 mm 5 mps 760 mmHg 31%
    15:00 +28°C° 0 mm 4 mps 759 mmHg 32%
    16:00 +27°C° 0 mm 4 mps 759 mmHg 35%
    17:00 +26°C° 0 mm 4 mps 758 mmHg 37%
    18:00 +25°C° 0 mm 4 mps 758 mmHg 40%
    19:00 +23°C° 0 mm 5 mps 758 mmHg 40%
    20:00 +22°C° 0 mm 6 mps 758 mmHg 40%
    21:00 +21°C° 0 mm 6 mps 758 mmHg 41%
    22:00 +21°C° 0.1 mm 6 mps 757 mmHg 46%
    23:00 +21°C° 0.1 mm 6 mps 757 mmHg 52%

    Day after tomorrow, 21 September, Saturday

    Time Temperature Precipitation Wind Pressure Humidity
    00:00 +20°C° 0.1 mm 6 mps 756 mmHg 57%
    01:00 +20°C° 0 mm 6 mps 756 mmHg 65%
    02:00 +20°C° 0 mm 7 mps 756 mmHg 74%
    03:00 +18°C° 0 mm 7 mps 755 mmHg 82%
    04:00 +18°C° 0 mm 7 mps 755 mmHg 85%
    05:00 +17°C° 0 mm 6 mps 755 mmHg 87%
    06:00 +17°C° 0 mm 6 mps 755 mmHg 90%
    07:00 +20°C° 0 mm 7 mps 755 mmHg 82%
    08:00 +22°C° 0 mm 8 mps 755 mmHg 73%
    09:00 +23°C° 0 mm 8 mps 755 mmHg 65%
    10:00 +24°C° 0 mm 8 mps 755 mmHg 61%
    11:00 +26°C° 0 mm 8 mps 754 mmHg 58%
    12:00 +27°C° 0 mm 8 mps 754 mmHg 54%
    13:00 +27°C° 0 mm 8 mps 754 mmHg 53%
    14:00 +27°C° 0 mm 8 mps 753 mmHg 51%
    15:00 +27°C° 0 mm 7 mps 753 mmHg 50%
    16:00 +26°C° 0 mm 6 mps 752 mmHg 55%
    17:00 +23°C° 0 mm 6 mps 752 mmHg 61%
    18:00 +22°C° 0 mm 5 mps 752 mmHg 67%
    19:00 +21°C° 0 mm 5 mps 752 mmHg 69%
    20:00 +20°C° 0 mm 5 mps 752 mmHg 72%
    21:00 +20°C° 0 mm 5 mps 752 mmHg 75%
    22:00 +20°C° 0.1 mm 6 mps 752 mmHg 75%
    23:00 +21°C° 0.1 mm 6 mps 752 mmHg 76%

    22 September, Sunday

    Time Temperature Precipitation Wind Pressure Humidity
    00:00 +21°C° 0.1 mm 7 mps 751 mmHg 76%
    01:00 +20°C° 0.4 mm 6 mps 752 mmHg 80%
    02:00 +17°C° 0.4 mm 5 mps 752 mmHg 83%
    03:00 +15°C° 0.4 mm 5 mps 753 mmHg 87%
    04:00 +15°C° 0.3 mm 5 mps 753 mmHg 87%
    05:00 +15°C° 0.3 mm 5 mps 753 mmHg 88%
    06:00 +15°C° 0.3 mm 6 mps 753 mmHg 88%
    07:00 +16°C° 0.1 mm 7 mps 754 mmHg 81%
    08:00 +18°C° 0.1 mm 7 mps 754 mmHg 73%
    09:00 +20°C° 0.1 mm 8 mps 754 mmHg 66%
    10:00 +19°C° 0.1 mm 9 mps 754 mmHg 64%
    11:00 +19°C° 0.1 mm 10 mps 754 mmHg 62%
    12:00 +21°C° 0.1 mm 11 mps 754 mmHg 60%
    13:00 +19°C° 0.2 mm 11 mps 755 mmHg 62%
    14:00 +19°C° 0.2 mm 10 mps 755 mmHg 63%
    15:00 +19°C° 0.2 mm 10 mps 755 mmHg 65%
    16:00 +18°C° 0 mm 9 mps 756 mmHg 65%
    17:00 +17°C° 0 mm 8 mps 757 mmHg 65%
    18:00 +17°C° 0 mm 7 mps 757 mmHg 66%
    19:00 +16°C° 0 mm 6 mps 758 mmHg 71%
    20:00 +15°C° 0 mm 5 mps 759 mmHg 76%
    21:00 +14°C° 0 mm 5 mps 759 mmHg 81%
    22:00 +14°C° 0 mm 4 mps 759 mmHg 83%
    23:00 +14°C° 0 mm 4 mps 759 mmHg 85%

    23 September, Monday

    Time Temperature Precipitation Wind Pressure Humidity
    00:00 +14°C° 0 mm 4 mps 760 mmHg 86%
    01:00 +14°C° 0.1 mm 4 mps 760 mmHg 87%
    02:00 +14°C° 0.1 mm 5 mps 760 mmHg 87%
    03:00 +14°C° 0.1 mm 5 mps 760 mmHg 87%
    04:00 +14°C° 0 mm 5 mps 760 mmHg 87%
    05:00 +14°C° 0 mm 4 mps 760 mmHg 87%
    06:00 +14°C° 0 mm 3 mps 760 mmHg 87%
    07:00 +15°C° 0.1 mm 4 mps 760 mmHg 83%
    08:00 +16°C° 0.1 mm 5 mps 760 mmHg 79%
    09:00 +19°C° 0.1 mm 6 mps 760 mmHg 75%
    10:00 +19°C° 0.1 mm 6 mps 760 mmHg 73%
    11:00 +20°C° 0.1 mm 7 mps 760 mmHg 71%
    12:00 +20°C° 0.1 mm 8 mps 760 mmHg 68%
    13:00 +18°C° 1.8 mm 8 mps 760 mmHg 76%
    14:00 +17°C° 1.8 mm 9 mps 759 mmHg 84%
    15:00 +16°C° 1.8 mm 9 mps 759 mmHg 92%
    16:00 +16°C° 1.3 mm 10 mps 759 mmHg 91%
    17:00 +17°C° 1.3 mm 10 mps 759 mmHg 91%
    18:00 +17°C° 1.3 mm 10 mps 759 mmHg 90%
    19:00 +17°C° 0.3 mm 9 mps 759 mmHg 91%
    20:00 +17°C° 0.3 mm 9 mps 760 mmHg 92%
    21:00 +17°C° 0.3 mm 8 mps 760 mmHg 92%
    22:00 +17°C° 0.1 mm 7 mps 760 mmHg 93%
    23:00 +17°C° 0.1 mm 7 mps 760 mmHg 94%

    24 September, Tuesday

    Time Temperature Precipitation Wind Pressure Humidity
    00:00 +18°C° 0.1 mm 7 mps 760 mmHg 95%
    01:00 +18°C° 0.1 mm 7 mps 759 mmHg 94%
    02:00 +19°C° 0.1 mm 6 mps 759 mmHg 94%
    03:00 +19°C° 0.1 mm 6 mps 759 mmHg 93%
    04:00 +18°C° 0.4 mm 7 mps 758 mmHg 92%
    05:00 +17°C° 0.4 mm 8 mps 758 mmHg 92%
    06:00 +17°C° 0.4 mm 10 mps 757 mmHg 91%
    07:00 +18°C° 0.4 mm 10 mps 757 mmHg 89%
    08:00 +18°C° 0.4 mm 10 mps 757 mmHg 87%
    09:00 +18°C° 0.4 mm 10 mps 757 mmHg 85%
    10:00 +18°C° 1.9 mm 10 mps 757 mmHg 87%
    11:00 +18°C° 1.9 mm 10 mps 757 mmHg 89%
    12:00 +18°C° 1.9 mm 10 mps 757 mmHg 91%
    13:00 +19°C° 0.3 mm 10 mps 757 mmHg 90%
    14:00 +19°C° 0.3 mm 10 mps 757 mmHg 89%
    15:00 +19°C° 0.3 mm 10 mps 756 mmHg 88%
    16:00 +19°C° 0.1 mm 9 mps 756 mmHg 90%
    17:00 +18°C° 0.1 mm 8 mps 756 mmHg 91%
    18:00 +18°C° 0.1 mm 7 mps 756 mmHg 92%
    19:00 +17°C° 0 mm 7 mps 757 mmHg 92%
    20:00 +16°C° 0 mm 6 mps 757 mmHg 92%
    21:00 +16°C° 0 mm 5 mps 757 mmHg 91%
    22:00 +16°C° 0 mm 5 mps 757 mmHg 90%
    23:00 +16°C° 0 mm 6 mps 757 mmHg 89%
    Show more